TimeCDT,TemperatureF,Dew PointF,Humidity,Sea Level PressureIn,VisibilityMPH,Wind Direction,Wind SpeedMPH,Gust SpeedMPH,PrecipitationIn,Events,Conditions,WindDirDegrees,DateUTC
12:52 AM,30.0,25.0,82,30.09,10.0,Calm,Calm,-,N/A,,Clear,0,2013-10-06 05:52:00
1:52 AM,30.0,26.1,85,30.09,10.0,Calm,Calm,-,N/A,,Clear,0,2013-10-06 06:52:00
2:52 AM,30.0,26.1,85,30.09,10.0,South,3.5,-,N/A,,Clear,180,2013-10-06 07:52:00
3:52 AM,26.1,23.0,88,30.09,10.0,WSW,3.5,-,N/A,,Clear,240,2013-10-06 08:52:00
4:52 AM,28.0,26.1,92,30.08,10.0,Calm,Calm,-,N/A,,Clear,0,2013-10-06 09:52:00
5:52 AM,28.9,26.1,89,30.08,10.0,SSW,3.5,-,N/A,,Clear,200,2013-10-06 10:52:00
6:52 AM,28.0,24.1,85,30.09,10.0,South,3.5,-,N/A,,Clear,180,2013-10-06 11:52:00
7:52 AM,28.0,24.1,85,30.12,10.0,South,4.6,-,N/A,,Clear,190,2013-10-06 12:52:00
8:52 AM,32.0,27.0,82,30.12,10.0,South,3.5,-,N/A,,Clear,190,2013-10-06 13:52:00
9:52 AM,37.0,30.0,76,30.11,10.0,South,4.6,-,N/A,,Clear,190,2013-10-06 14:52:00
10:52 AM,45.0,32.0,60,30.09,10.0,South,5.8,-,N/A,,Clear,190,2013-10-06 15:52:00
11:52 AM,54.0,34.0,47,30.06,10.0,SSW,6.9,-,N/A,,Clear,210,2013-10-06 16:52:00
12:52 PM,63.0,36.0,37,30.04,10.0,South,6.9,-,N/A,,Clear,190,2013-10-06 17:52:00
1:52 PM,68.0,35.1,30,30.02,10.0,WSW,6.9,-,N/A,,Clear,240,2013-10-06 18:52:00
2:52 PM,70.0,36.0,29,29.98,10.0,West,15.0,-,N/A,,Clear,260,2013-10-06 19:52:00
3:52 PM,71.1,37.0,29,29.97,10.0,West,16.1,-,N/A,,Clear,280,2013-10-06 20:52:00
4:52 PM,72.0,37.0,28,29.96,10.0,WNW,11.5,-,N/A,,Clear,290,2013-10-06 21:52:00
5:52 PM,72.0,37.0,28,29.95,10.0,WNW,11.5,-,N/A,,Clear,300,2013-10-06 22:52:00
6:52 PM,66.0,37.9,36,29.97,10.0,NNW,8.1,-,N/A,,Clear,330,2013-10-06 23:52:00
7:52 PM,57.9,37.9,47,29.99,10.0,NNW,9.2,-,N/A,,Clear,340,2013-10-07 00:52:00
8:52 PM,54.0,37.9,55,30.00,10.0,North,4.6,-,N/A,,Clear,360,2013-10-07 01:52:00
9:52 PM,46.9,37.0,68,30.00,10.0,Calm,Calm,-,N/A,,Clear,0,2013-10-07 02:52:00
10:52 PM,39.9,35.1,83,30.00,10.0,Calm,Calm,-,N/A,,Clear,0,2013-10-07 03:52:00
11:52 PM,39.0,35.1,86,29.99,10.0,Calm,Calm,-,N/A,,Clear,0,2013-10-07 04:52:00